EA1QW Weather Reports


Display with metric or nautical units.
time (UTC)temp
F
wind
direction
speed
MPH
gust
MPH
rain 1hr
in
rain 24hr
in
rain mn
in
humidity
%
barometer
mb
20171218104515 48 239 0.0 4.0 0.00 0.00 0.00 74 1035.2
20171218104020 48 239 1.0 4.0 0.00 0.00 0.00 73 1035.2
20171218103517 48 239 1.0 4.0 0.00 0.00 0.00 73 1035.2
20171218103011 48 239 0.0 5.0 0.00 0.00 0.00 73 1034.9
20171218102511 48 239 2.0 5.0 0.00 0.00 0.00 73 1034.9
20171218102023 47 238 3.0 6.0 0.00 0.00 0.00 73 1034.9
20171218101509 47 238 4.0 6.0 0.00 0.00 0.00 74 1034.8
20171218101022 47 237 3.0 5.0 0.00 0.00 0.00 75 1034.8
20171218100516 47 238 1.0 4.0 0.00 0.00 0.00 76 1034.8
20171218100012 47 238 1.0 5.0 0.00 0.00 0.00 76 1034.7
20171218095527 47 239 2.0 6.0 0.00 0.00 0.00 77 1034.7
20171218095016 46 232 2.0 6.0 0.00 0.00 0.00 79 1034.7
20171218094515 46 236 1.0 4.0 0.00 0.00 0.00 81 1034.5
20171218094025 45 238 1.0 4.0 0.00 0.00 0.00 81 1034.5
20171218093522 45 238 2.0 4.0 0.00 0.00 0.00 84 1034.5
20171218093029 45 238 0.0 4.0 0.00 0.00 0.00 84 1034.5
20171218092528 44 238 2.0 4.0 0.00 0.00 0.00 86 1034.5
20171218092020 44 240 1.0 3.0 0.00 0.00 0.00 88 1034.5
20171218091514 43 240 1.0 4.0 0.00 0.00 0.00 89 1034.6
20171218091025 43 242 3.0 6.0 0.00 0.00 0.00 91 1034.6
20171218090527 43 255 2.0 6.0 0.00 0.00 0.00 93 1034.6
20171218090021 42 309 0.0 4.0 0.00 0.00 0.00 93 1034.6
20171218085521 42 315 0.0 0.0 0.00 0.00 0.00 93 1034.7
20171218085016 42 315 0.0 0.0 0.00 0.00 0.00 93 1034.7
20171218084510 42 315 0.0 0.0 0.00 0.00 0.00 94 1034.8
20171218084020 41 315 0.0 0.0 0.00 0.00 0.00 94 1034.8
20171218083518 41 315 0.0 0.0 0.00 0.00 0.00 94 1034.8
20171218083014 41 315 0.0 0.0 0.00 0.00 0.00 94 1035.0
20171218082514 41 315 0.0 0.0 0.00 0.00 0.00 95 1035.0
20171218082025 41 315 0.0 0.0 0.00 0.00 0.00 95 1035.0
20171218081518 40 315 0.0 0.0 0.00 0.00 0.00 95 1035.0
20171218081011 40 315 0.0 3.0 0.00 0.00 0.00 95 1034.9
20171218080509 40 315 1.0 3.0 0.00 0.00 0.00 95 1034.9
20171218080022 39 315 1.0 2.0 0.00 0.00 0.00 95 1034.9
20171218075522 39 315 0.0 2.0 0.00 0.00 0.00 95 1035.0
20171218075018 39 315 1.0 2.0 0.00 0.00 0.00 95 1035.0
20171218074516 39 315 0.0 0.0 0.00 0.00 0.00 95 1035.0
20171218074015 38 315 0.0 0.0 0.00 0.00 0.00 95 1034.9
20171218073512 38 315 0.0 3.0 0.00 0.00 0.00 95 1034.9
20171218073012 38 315 0.0 3.0 0.00 0.00 0.00 94 1034.9
20171218072510 38 315 1.0 2.0 0.00 0.00 0.00 95 1034.9
20171218072008 38 315 0.0 0.0 0.00 0.00 0.00 94 1034.9
20171218071511 38 315 0.0 0.0 0.00 0.00 0.00 94 1034.9
20171218071012 38 315 0.0 0.0 0.00 0.00 0.00 94 1034.9
20171218070513 38 315 0.0 0.0 0.00 0.00 0.00 94 1034.9
20171218070014 38 315 0.0 0.0 0.00 0.04 0.00 94 1034.7
20171218065511 38 315 0.0 0.0 0.00 0.04 0.00 93 1034.7
20171218065010 38 315 0.0 0.0 0.00 0.04 0.00 93 1034.7
20171218064528 38 315 0.0 0.0 0.00 0.04 0.00 93 1034.7
20171218064023 38 315 0.0 0.0 0.00 0.04 0.00 94 1034.4
20171218063525 38 315 0.0 0.0 0.00 0.04 0.00 94 1034.4
20171218063023 38 315 0.0 2.0 0.00 0.04 0.00 93 1034.4
20171218062520 39 315 1.0 2.0 0.00 0.04 0.00 94 1034.2
20171218062019 38 315 0.0 2.0 0.00 0.04 0.00 94 1034.2
20171218061519 39 315 2.0 2.0 0.00 0.04 0.00 93 1034.2
20171218061018 39 315 0.0 0.0 0.00 0.04 0.00 93 1033.9
20171218060528 39 315 0.0 0.0 0.00 0.04 0.00 93 1033.9
20171218060009 39 315 0.0 0.0 0.00 0.04 0.00 93 1033.9
20171218055507 39 315 0.0 2.0 0.00 0.04 0.00 94 1033.9
20171218055009 39 315 0.0 3.0 0.00 0.04 0.00 94 1033.9
20171218054513 39 315 2.0 3.0 0.00 0.04 0.00 93 1033.7
20171218054013 39 315 0.0 0.0 0.00 0.04 0.00 93 1033.7
20171218053513 39 315 0.0 0.0 0.00 0.04 0.00 93 1033.7
20171218053017 39 315 0.0 0.0 0.00 0.04 0.00 93 1033.7
20171218052516 39 315 0.0 2.0 0.00 0.04 0.00 93 1033.8
20171218052012 39 315 0.0 2.0 0.00 0.04 0.00 93 1033.8
20171218051512 39 315 0.0 0.0 0.00 0.04 0.00 93 1033.8
20171218051013 39 315 0.0 0.0 0.00 0.04 0.00 93 1033.8
20171218050513 39 315 0.0 1.0 0.00 0.04 0.00 93 1033.8
20171218050026 39 315 0.0 3.0 0.00 0.04 0.00 93 1033.8
20171218045510 39 315 1.0 3.0 0.00 0.04 0.00 93 1033.8
20171218045022 39 315 0.0 0.0 0.00 0.04 0.00 93 1033.8
20171218044520 40 315 0.0 0.0 0.00 0.04 0.00 93 1033.8
20171218044019 40 315 0.0 0.0 0.00 0.04 0.00 93 1033.7
20171218043524 40 315 0.0 0.0 0.00 0.04 0.00 93 1033.7
20171218043024 40 315 0.0 0.0 0.00 0.04 0.00 93 1033.7
20171218042525 40 315 0.0 1.0 0.00 0.04 0.00 93 1033.6
20171218042028 40 315 0.0 1.0 0.00 0.04 0.00 93 1033.6
20171218041527 40 315 0.0 0.0 0.00 0.04 0.00 93 1033.6
20171218041009 40 315 0.0 0.0 0.00 0.04 0.00 93 1033.8
20171218040509 40 315 0.0 0.0 0.00 0.04 0.00 93 1033.8
20171218040010 40 315 0.0 0.0 0.00 0.04 0.00 93 1033.8
20171218035509 40 315 0.0 2.0 0.00 0.04 0.00 94 1033.8
20171218035025 40 315 0.0 2.0 0.00 0.04 0.00 94 1033.8
20171218034523 40 315 0.0 1.0 0.00 0.04 0.00 94 1033.8
20171218034021 40 315 0.0 0.0 0.00 0.04 0.00 94 1033.9
20171218033520 40 315 0.0 2.0 0.00 0.04 0.00 94 1033.9
20171218033018 40 315 1.0 2.0 0.00 0.04 0.00 94 1033.9
20171218032519 40 315 1.0 3.0 0.00 0.04 0.00 95 1033.9
20171218032017 40 315 2.0 3.0 0.00 0.04 0.00 95 1033.9
20171218031517 40 315 0.0 1.0 0.00 0.04 0.00 95 1033.9
20171218031011 40 315 0.0 2.0 0.00 0.04 0.00 95 1033.9
20171218030515 40 315 2.0 2.0 0.00 0.04 0.00 95 1033.9
20171218030012 40 315 0.0 0.0 0.00 0.16 0.00 95 1033.9
20171218025514 40 315 0.0 0.0 0.00 0.16 0.00 95 1033.9
20171218025012 40 315 0.0 0.0 0.00 0.16 0.00 95 1033.9
20171218024517 40 315 0.0 0.0 0.00 0.16 0.00 95 1033.9
20171218024015 40 315 0.0 0.0 0.00 0.16 0.00 95 1033.9
20171218023516 40 315 0.0 0.0 0.00 0.16 0.00 95 1033.9
20171218023021 40 315 0.0 0.0 0.00 0.16 0.00 95 1033.9
20171218022521 40 315 0.0 0.0 0.00 0.16 0.00 96 1033.9
20171218022020 40 315 0.0 0.0 0.00 0.16 0.00 95 1033.9
20171218021524 40 315 0.0 0.0 0.00 0.16 0.00 95 1033.9
20171218021022 40 315 0.0 0.0 0.00 0.16 0.00 95 1033.9
20171218020520 40 315 0.0 2.0 0.00 0.16 0.00 95 1033.9
20171218020020 40 315 0.0 0.0 0.00 0.20 0.00 95 1033.9
20171218015514 40 315 0.0 0.0 0.00 0.20 0.00 95 1033.9
20171218015019 40 315 0.0 0.0 0.00 0.20 0.00 95 1033.9
20171218014517 40 315 0.0 0.0 0.00 0.20 0.00 96 1033.9
20171218014016 40 315 0.0 0.0 0.00 0.20 0.00 96 1033.9
20171218013518 40 315 0.0 0.0 0.00 0.20 0.00 96 1033.9
20171218013013 40 315 0.0 0.0 0.00 0.20 0.00 95 1034.0
20171218012520 40 315 0.0 0.0 0.00 0.20 0.00 95 1034.0
20171218012018 40 315 0.0 0.0 0.00 0.20 0.00 95 1034.0
20171218011525 40 315 0.0 0.0 0.00 0.20 0.00 95 1034.0
20171218011023 40 315 0.0 0.0 0.00 0.20 0.00 95 1034.3
20171218010510 40 315 0.0 0.0 0.00 0.20 0.00 95 1034.3
20171218010010 40 315 0.0 0.0 0.00 0.20 0.00 95 1034.6
20171218005512 40 315 0.0 0.0 0.00 0.20 0.00 95 1034.6
20171218005011 40 315 0.0 0.0 0.00 0.20 0.00 95 1034.6
20171218004512 41 315 0.0 0.0 0.00 0.20 0.00 95 1034.7
20171218004027 41 315 0.0 0.0 0.00 0.20 0.00 95 1034.7
20171218003511 41 315 0.0 0.0 0.00 0.20 0.00 95 1034.7
20171218003009 41 315 0.0 0.0 0.00 0.20 0.00 95 1034.9
20171218002512 41 315 0.0 0.0 0.00 0.20 0.00 95 1034.9
20171218002013 41 315 0.0 0.0 0.00 0.20 0.00 95 1034.9
20171218001521 41 315 0.0 0.0 0.00 0.20 0.00 95 1034.9
20171218001025 41 315 0.0 0.0 0.00 0.20 0.00 95 1035.0
20171218000522 41 315 0.0 0.0 0.00 0.20 0.00 95 1035.0
20171218000019 41 315 0.0 0.0 0.00 0.20 0.04 95 1035.0
20171217235523 41 315 0.0 0.0 0.00 0.20 0.04 95 1035.4
20171217235018 41 315 0.0 0.0 0.00 0.20 0.04 95 1035.4
20171217234523 42 315 0.0 0.0 0.00 0.20 0.04 95 1035.4
20171217234020 42 315 0.0 0.0 0.00 0.20 0.04 95 1035.4
20171217233525 42 315 0.0 0.0 0.00 0.20 0.04 95 1035.4
20171217233020 42 315 0.0 0.0 0.00 0.20 0.04 95 1035.4
20171217232525 42 315 0.0 0.0 0.00 0.20 0.04 95 1035.4
20171217232025 42 315 0.0 0.0 0.00 0.20 0.04 95 1035.4
20171217231510 42 315 0.0 0.0 0.00 0.20 0.04 95 1035.4
20171217231027 42 315 0.0 0.0 0.00 0.20 0.04 95 1035.4
20171217230511 42 315 0.0 0.0 0.00 0.20 0.04 95 1035.4
20171217230022 42 315 0.0 0.0 0.00 0.20 0.04 95 1035.4
20171217225520 42 315 0.0 0.0 0.00 0.20 0.04 94 1035.3
20171217225021 42 315 0.0 0.0 0.00 0.20 0.04 94 1035.3
20171217224515 43 315 0.0 0.0 0.00 0.20 0.04 95 1035.0
20171217224014 43 315 0.0 0.0 0.00 0.20 0.04 95 1035.0
20171217223515 43 315 0.0 0.0 0.00 0.20 0.04 95 1035.0
20171217223011 43 315 0.0 0.0 0.00 0.20 0.04 95 1035.3
20171217222526 43 315 0.0 0.0 0.00 0.20 0.04 95 1035.3
20171217222022 43 315 0.0 0.0 0.00 0.20 0.04 95 1035.3
20171217221523 43 315 0.0 2.0 0.00 0.20 0.04 95 1035.3
20171217221022 43 315 1.0 2.0 0.00 0.20 0.04 95 1035.0
20171217220527 43 315 0.0 0.0 0.00 0.20 0.04 95 1035.0
20171217220020 43 315 0.0 0.0 0.00 0.31 0.04 95 1035.0
20171217215518 43 315 0.0 2.0 0.00 0.31 0.04 94 1035.0
20171217215011 43 315 0.0 2.0 0.00 0.31 0.04 94 1035.0
20171217214528 43 315 1.0 2.0 0.00 0.31 0.04 94 1035.0
20171217214024 43 315 0.0 0.0 0.00 0.31 0.04 94 1034.9
20171217213523 43 315 0.0 0.0 0.00 0.31 0.04 94 1034.9
20171217213019 43 315 0.0 0.0 0.00 0.31 0.04 94 1034.9
20171217212517 43 315 0.0 0.0 0.00 0.31 0.04 94 1034.9
20171217212015 43 315 0.0 0.0 0.00 0.31 0.04 93 1034.9
20171217211515 43 315 0.0 0.0 0.00 0.31 0.04 93 1034.8
20171217211011 43 315 0.0 0.0 0.00 0.31 0.04 93 1034.8
20171217210512 43 315 0.0 0.0 0.00 0.31 0.04 94 1034.8
20171217210027 43 315 0.0 0.0 0.00 0.31 0.04 93 1034.8
20171217205525 43 315 0.0 0.0 0.00 0.31 0.04 93 1034.6
20171217205018 43 315 0.0 0.0 0.00 0.31 0.04 93 1034.6
20171217204522 44 315 0.0 0.0 0.00 0.31 0.04 93 1034.6
20171217204019 44 315 0.0 0.0 0.00 0.31 0.04 92 1034.9
20171217203517 44 315 0.0 0.0 0.00 0.31 0.04 92 1034.9
20171217203016 44 315 0.0 0.0 0.00 0.31 0.04 92 1034.9
20171217202519 44 315 0.0 0.0 0.00 0.31 0.04 92 1034.8
20171217202016 44 315 0.0 0.0 0.00 0.31 0.04 92 1034.8
20171217201524 44 315 0.0 0.0 0.00 0.31 0.04 92 1034.8
20171217201017 45 315 0.0 0.0 0.00 0.31 0.04 92 1034.5
20171217200511 45 315 0.0 0.0 0.00 0.31 0.04 92 1034.5
20171217200020 45 315 0.0 0.0 0.00 0.31 0.04 92 1034.5
20171217195520 45 315 0.0 0.0 0.00 0.31 0.04 92 1034.4
20171217195017 45 315 0.0 0.0 0.00 0.31 0.04 92 1034.4
20171217194528 45 315 0.0 0.0 0.00 0.31 0.04 91 1034.4
20171217194017 45 315 0.0 0.0 0.00 0.31 0.04 91 1033.9
20171217193514 45 315 0.0 0.0 0.00 0.31 0.04 91 1033.9
20171217193021 45 315 0.0 0.0 0.00 0.31 0.04 91 1033.9
20171217192515 46 315 0.0 0.0 0.00 0.31 0.04 91 1033.7
20171217191524 46 315 0.0 0.0 0.00 0.31 0.04 91 1033.7
20171217191023 46 315 0.0 0.0 0.00 0.31 0.04 90 1033.4
20171217190514 46 315 0.0 0.0 0.00 0.31 0.04 90 1033.4
20171217190019 46 315 0.0 0.0 0.00 0.47 0.04 89 1033.4
20171217185520 46 315 0.0 0.0 0.00 0.47 0.04 89 1033.3
20171217185022 47 315 0.0 0.0 0.00 0.47 0.04 88 1033.3
20171217184518 47 315 0.0 0.0 0.00 0.47 0.04 88 1033.2
20171217184012 47 315 0.0 0.0 0.00 0.47 0.04 88 1033.2
20171217183525 47 315 0.0 0.0 0.00 0.47 0.04 87 1033.2
20171217183014 48 315 0.0 0.0 0.00 0.47 0.04 87 1033.3
20171217182513 48 315 0.0 0.0 0.00 0.47 0.04 87 1033.3
20171217182012 48 315 0.0 0.0 0.00 0.47 0.04 87 1033.3
20171217181514 48 315 0.0 0.0 0.00 0.47 0.04 87 1033.3
20171217181027 48 315 0.0 0.0 0.00 0.47 0.04 87 1033.3
20171217180529 48 315 0.0 0.0 0.00 0.47 0.04 86 1033.3
20171217180016 49 315 0.0 0.0 0.00 0.47 0.04 86 1033.3
20171217175514 49 315 0.0 0.0 0.00 0.47 0.04 85 1033.3
20171217175023 49 315 0.0 0.0 0.00 0.47 0.04 85 1033.3
20171217174527 49 315 0.0 0.0 0.00 0.47 0.04 84 1033.3
20171217174025 50 315 0.0 0.0 0.00 0.47 0.04 83 1033.3
20171217173523 50 315 0.0 0.0 0.00 0.47 0.04 82 1033.3
20171217173013 50 315 0.0 0.0 0.00 0.47 0.04 82 1033.5
20171217172528 50 315 0.0 1.0 0.00 0.47 0.04 82 1033.5
20171217172019 50 315 0.0 2.0 0.00 0.47 0.04 82 1033.5
20171217171521 50 315 1.0 3.0 0.00 0.47 0.04 81 1033.5
20171217171020 51 315 0.0 3.0 0.00 0.47 0.04 80 1033.4
20171217170519 51 314 2.0 2.0 0.00 0.47 0.04 79 1033.4
20171217170015 52 313 0.0 0.0 0.00 0.47 0.04 78 1033.4
20171217165515 52 314 0.0 0.0 0.00 0.47 0.04 76 1033.4
20171217165013 52 314 0.0 0.0 0.00 0.47 0.04 75 1033.4
20171217164524 52 314 0.0 0.0 0.00 0.47 0.04 75 1033.4
20171217164020 53 314 0.0 1.0 0.00 0.47 0.04 74 1033.7
20171217163520 53 314 0.0 1.0 0.00 0.47 0.04 74 1033.7
20171217163014 53 314 0.0 1.0 0.00 0.47 0.04 75 1033.3
20171217162525 53 314 0.0 3.0 0.00 0.47 0.04 75 1033.3
20171217162020 53 314 0.0 3.0 0.00 0.47 0.04 75 1033.3
20171217161513 53 314 1.0 2.0 0.00 0.47 0.04 75 1033.3
20171217161021 53 314 0.0 2.0 0.00 0.47 0.04 75 1033.3
20171217160513 53 314 0.0 4.0 0.00 0.47 0.04 75 1033.3
20171217160027 53 314 0.0 4.0 0.00 1.18 0.04 75 1033.3
20171217155524 53 314 1.0 6.0 0.00 1.18 0.04 74 1033.2
20171217155018 53 314 2.0 6.0 0.00 1.18 0.04 74 1033.2
20171217154515 53 313 1.0 5.0 0.00 1.18 0.04 74 1032.8
20171217154028 54 306 2.0 5.0 0.00 1.18 0.04 73 1032.8
20171217153523 54 309 1.0 4.0 0.00 1.18 0.04 73 1032.8
20171217153013 54 307 2.0 6.0 0.00 1.18 0.04 72 1032.8
20171217152515 54 310 3.0 6.0 0.00 1.18 0.04 72 1032.8
20171217152017 54 312 2.0 4.0 0.00 1.18 0.04 71 1032.8
20171217151512 54 312 1.0 4.0 0.00 1.18 0.04 72 1032.8
20171217151028 54 312 0.0 5.0 0.00 1.18 0.04 71 1032.8
20171217150529 54 316 2.0 5.0 0.00 1.18 0.04 71 1032.8
20171217150021 54 313 2.0 6.0 0.00 1.18 0.04 71 1032.8
20171217145518 54 295 4.0 6.0 0.00 1.18 0.04 71 1032.7
20171217145025 54 320 4.0 6.0 0.00 1.18 0.04 71 1032.7
20171217144518 54 273 3.0 6.0 0.00 1.18 0.04 71 1032.7
20171217144018 54 299 4.0 7.0 0.00 1.18 0.04 70 1032.4
20171217143517 55 308 3.0 7.0 0.00 1.18 0.04 69 1032.4
20171217143025 55 333 2.0 4.0 0.00 1.18 0.04 69 1032.4
20171217142522 55 292 2.0 4.0 0.00 1.18 0.04 67 1032.7
20171217142016 55 208 0.0 1.0 0.00 1.18 0.04 65 1032.7
20171217141514 55 208 0.0 3.0 0.00 1.18 0.04 63 1032.6
20171217141013 55 208 0.0 3.0 0.00 1.18 0.04 63 1032.6
20171217140517 55 208 1.0 3.0 0.00 1.18 0.04 64 1032.6
20171217140013 55 208 0.0 3.0 0.00 1.18 0.04 64 1032.8
20171217135515 55 209 0.0 2.0 0.00 1.18 0.04 64 1032.8
20171217135012 55 209 0.0 3.0 0.00 1.18 0.04 65 1032.8
20171217134514 55 209 0.0 3.0 0.00 1.18 0.04 63 1032.7
20171217134014 55 172 0.0 3.0 0.00 1.18 0.04 65 1032.7
20171217133513 55 172 1.0 5.0 0.00 1.18 0.04 66 1032.7
20171217133012 55 171 2.0 5.0 0.00 1.18 0.04 64 1032.8
20171217132510 55 169 2.0 5.0 0.00 1.18 0.04 66 1032.8
20171217132026 55 169 2.0 5.0 0.00 1.18 0.04 68 1032.8
20171217131507 55 225 2.0 5.0 0.00 1.18 0.04 69 1032.9
20171217131027 55 236 2.0 5.0 0.00 1.18 0.04 66 1032.9
20171217130526 55 227 1.0 6.0 0.00 1.18 0.04 69 1032.9
20171217130024 54 229 3.0 7.0 0.00 1.57 0.04 70 1032.9
20171217125523 54 207 3.0 7.0 0.00 1.57 0.04 69 1033.3
20171217125016 54 195 4.0 7.0 0.00 1.57 0.04 68 1033.3
20171217124517 54 232 4.0 5.0 0.00 1.57 0.04 69 1033.4
20171217124022 54 182 1.0 4.0 0.00 1.57 0.04 71 1033.4
20171217123509 54 185 1.0 5.0 0.00 1.57 0.04 72 1033.4
20171217123027 54 183 2.0 5.0 0.00 1.57 0.04 72 1033.4
20171217122525 54 142 2.0 7.0 0.00 1.57 0.04 73 1033.3
20171217122021 53 194 4.0 7.0 0.00 1.57 0.04 72 1033.3
20171217121514 53 191 3.0 7.0 0.00 1.57 0.04 74 1033.5
20171217121028 53 184 2.0 6.0 0.00 1.57 0.04 73 1033.5
20171217120521 53 181 3.0 6.0 0.00 1.57 0.04 73 1033.5
20171217120014 53 169 3.0 6.0 0.00 1.73 0.04 75 1033.8
20171217115513 53 195 3.0 9.0 0.00 1.73 0.04 75 1033.8
20171217115025 52 200 4.0 9.0 0.00 1.73 0.04 75 1033.8
20171217114524 52 166 3.0 9.0 0.00 1.73 0.04 75 1033.8
20171217114020 52 191 3.0 9.0 0.00 1.73 0.04 76 1033.9
20171217113518 52 196 4.0 11.0 0.00 1.73 0.04 77 1033.9
20171217113017 52 202 5.0 7.0 0.00 1.73 0.04 76 1033.9
20171217112513 52 212 3.0 7.0 0.00 1.73 0.04 77 1033.9
20171217112028 52 217 4.0 7.0 0.00 1.73 0.04 77 1033.9
20171217111523 52 199 4.0 7.0 0.00 1.73 0.04 79 1033.9
20171217111015 51 217 4.0 7.0 0.00 1.73 0.04 81 1034.3
20171217110530 51 215 3.0 6.0 0.00 1.73 0.04 83 1034.3
20171217110030 51 223 1.0 4.0 0.00 1.73 0.04 83 1034.3
20171217105528 51 186 1.0 6.0 0.00 1.73 0.04 82 1034.4
20171217105025 51 196 3.0 6.0 0.00 1.73 0.04 83 1034.4